Weather History for KTRL - March, 2014

Change the Weather History Date:

Saturday, March 8, 2014

  Actual Average (KDFW) Record (KDFW)
Temperature  
Mean Temperature 47 °F 55 °F  
Max Temperature 55 °F 66 °F 94 °F (1911)
Min Temperature 39 °F 45 °F 22 °F (1996)
Degree Days  
Heating Degree Days 18 10  
Month to date heating degree days 89  
Since 1 July heating degree days 2021  
Cooling Degree Days 0 1  
Month to date cooling degree days 6  
Year to date cooling degree days 13  
Moisture  
Dew Point 46 °F    
Average Humidity 88    
Maximum Humidity 100    
Minimum Humidity 77    
Precipitation  
Precipitation 0.02 in 0.11 in 1.49 in (1999)
Month to date precipitation 0.91  
Year to date precipitation 5.70  
Snow  
Snow 0.00 in 0.00 in 1.60 in (1942)
Month to date snowfall 0.0  
Since 1 July snowfall 1.0  
Snow Depth -    
Sea Level Pressure  
Sea Level Pressure 30.11 in    
Wind  
Wind Speed 10 mph (WSW)    
Max Wind Speed 18 mph    
Max Gust Speed 28 mph    
Visibility 8 miles    
Events Rain    
T = Trace of Precipitation, MM = Missing Value Source: NWS Daily Summary

Daily Weather History Graph

Daily Weather History Graph

Search for Another Location

Airport or City:

Trip Planner

Search our weather history database for the weather conditions in past years. The results will help you decide how hot, cold, wet, or windy it might be!

Date:

Astronomy

Mar. 08, 2014 Rise Set
Actual Time 6:44 AM CST 6:27 PM CST
Civil Twilight 6:19 AM CST 6:52 PM CST
Nautical Twilight 5:51 AM CST 7:21 PM CST
Astronomical Twilight 5:22 AM CST 7:49 PM CST
Moon 11:46 AM CST (3/8) 1:06 AM CST (3/8)
Length of Visible Light 12h 32m
Length of Day
11h 43m
First Quarter, 52% of the Moon is Illuminated
Mar 8
First Quarter
Mar 16
Full
Mar 23
Last Quarter
Mar 30
New
Apr 7
First Quarter

Hourly Weather History & Observations

Time (CST) Temp. Windchill Dew Point Humidity Pressure Visibility Wind Dir Wind Speed Gust Speed Precip Events Conditions
12:53 AM 50.0 °F - 44.1 °F 80% 29.90 in 10.0 mi SSE 5.8 mph - N/A   Clear
1:53 AM 52.0 °F - 46.9 °F 83% 29.91 in 10.0 mi SSE 11.5 mph - N/A   Clear
2:32 AM 52.0 °F - 48.0 °F 86% 29.92 in 10.0 mi SSE 9.2 mph - N/A   Mostly Cloudy
2:53 AM 53.1 °F - 48.9 °F 86% 29.92 in 10.0 mi SSE 8.1 mph - N/A   Overcast
3:53 AM 53.1 °F - 48.9 °F 86% 29.96 in 10.0 mi ESE 6.9 mph - N/A   Overcast
4:53 AM 53.1 °F - 48.9 °F 86% 29.98 in 10.0 mi ESE 8.1 mph - N/A   Overcast
5:43 AM 53.1 °F - 50.0 °F 89% 29.99 in 10.0 mi SSE 12.7 mph - N/A   Overcast
5:53 AM 53.1 °F - 50.0 °F 89% 29.99 in 10.0 mi SE 10.4 mph - N/A   Overcast
6:28 AM 53.1 °F - 50.0 °F 89% 30.01 in 10.0 mi SSE 10.4 mph - N/A   Overcast
6:53 AM 52.0 °F - 50.0 °F 93% 30.01 in 9.0 mi SSE 11.5 mph - N/A   Overcast
7:40 AM 52.0 °F - 50.0 °F 93% 30.03 in 6.0 mi SSE 11.5 mph - N/A   Overcast
7:53 AM 53.1 °F - 51.1 °F 93% 30.02 in 7.0 mi SSE 16.1 mph - N/A   Overcast
8:22 AM 53.1 °F - 51.1 °F 93% 30.04 in 8.0 mi SSE 12.7 mph 20.7 mph N/A   Overcast
8:41 AM 54.0 °F - 51.1 °F 90% 30.05 in 8.0 mi SSE 16.1 mph - N/A   Overcast
8:53 AM 54.0 °F - 51.1 °F 90% 30.04 in 9.0 mi South 16.1 mph - N/A   Overcast
9:16 AM 55.0 °F - 52.0 °F 89% 30.06 in 9.0 mi South 16.1 mph - N/A   Overcast
9:41 AM 55.9 °F - 52.0 °F 87% 30.07 in 10.0 mi South 11.5 mph - N/A   Overcast
9:53 AM 55.9 °F - 52.0 °F 87% 30.08 in 10.0 mi South 13.8 mph - N/A   Overcast
10:53 AM 55.9 °F - 52.0 °F 87% 30.09 in 10.0 mi South 11.5 mph - N/A   Overcast
11:01 AM 55.9 °F - 52.0 °F 87% 30.10 in 10.0 mi SSW 10.4 mph - N/A   Overcast
11:53 AM 55.9 °F - 53.1 °F 90% 30.11 in 4.0 mi WSW 9.2 mph - N/A   Overcast
11:58 AM 55.9 °F - 54.0 °F 93% 30.11 in 2.5 mi West 9.2 mph - N/A   Overcast
12:05 PM 55.0 °F - 55.0 °F 100% 30.11 in 1.8 mi WSW 8.1 mph - 0.00 in Rain Light Rain
12:26 PM 55.0 °F - 55.0 °F 100% 30.11 in 2.0 mi West 5.8 mph - 0.00 in   Overcast
12:53 PM 52.0 °F - 46.9 °F 83% 30.10 in 5.0 mi WNW 9.2 mph - 0.00 in   Haze
1:01 PM 53.1 °F - 46.9 °F 80% 30.10 in 6.0 mi WNW 8.1 mph - N/A   Haze
1:53 PM 53.1 °F - 46.0 °F 77% 30.11 in 5.0 mi WNW 11.5 mph - N/A   Haze
2:53 PM 51.1 °F - 45.0 °F 80% 30.11 in 5.0 mi NW 12.7 mph - N/A   Haze
3:53 PM 50.0 °F - 45.0 °F 83% 30.13 in 7.0 mi NNW 16.1 mph - N/A   Overcast
4:24 PM 48.9 °F - 44.1 °F 83% 30.15 in 7.0 mi NW 18.4 mph - N/A   Overcast
4:53 PM 46.9 °F - 43.0 °F 86% 30.17 in 8.0 mi NW 18.4 mph 27.6 mph N/A   Overcast
5:53 PM 44.1 °F 36.5 °F 39.9 °F 85% 30.20 in 6.0 mi NNW 17.3 mph 25.3 mph N/A   Overcast
6:53 PM 42.1 °F 34.9 °F 39.0 °F 89% 30.22 in 6.0 mi NNW 13.8 mph 25.3 mph N/A   Overcast
7:53 PM 41.0 °F 33.9 °F 37.0 °F 86% 30.24 in 8.0 mi North 12.7 mph 21.9 mph N/A   Overcast
8:53 PM 39.9 °F 33.9 °F 37.9 °F 93% 30.28 in 5.0 mi North 9.2 mph - 0.01 in Rain Light Rain
9:27 PM 39.0 °F 31.8 °F 37.0 °F 93% 30.29 in 6.0 mi North 11.5 mph - 0.00 in Rain Light Rain
9:37 PM 39.0 °F 33.4 °F 37.0 °F 93% 30.29 in 7.0 mi NNW 8.1 mph - 0.01 in Rain Light Rain
9:46 PM 39.0 °F 32.3 °F 37.0 °F 93% 30.28 in 8.0 mi North 10.4 mph - 0.01 in   Overcast
9:53 PM 39.0 °F 31.8 °F 37.0 °F 93% 30.28 in 8.0 mi North 11.5 mph - 0.01 in   Overcast
10:33 PM 39.0 °F 33.4 °F 36.0 °F 89% 30.29 in 9.0 mi North 8.1 mph - N/A   Overcast
10:53 PM 39.0 °F 32.8 °F 37.0 °F 93% 30.30 in 10.0 mi NNW 9.2 mph - N/A   Overcast
11:24 PM 39.0 °F 34.0 °F 36.0 °F 89% 30.31 in 10.0 mi NNW 6.9 mph - N/A   Overcast
11:53 PM 39.0 °F 32.8 °F 36.0 °F 89% 30.31 in 10.0 mi North 9.2 mph - N/A   Overcast